RH
84 85 86 86 86 86 86 86 87 87 87 86 86 87 88 89 87 44 25 28 29 81 75 37 43 50 36 29 24 39 65 28 25 27 26 20 23 20 18 21 20 23 27 27 25
85 85 86 86 86 86 86 86 86 87 88 88 88 87 88 87 46 27 43 74 75 79 44 51 44 50 70 66 37 32 21 21 19 19 21 20 22 21 22 24 26 28 27 26 25
87 88 89 89 88 88 88 88 87 88 86 86 87 87 88 73 31 15 71 77 74 65 54 64 50 68 72 51 12 13 18 15 17 16 17 20 21 18 22 29 28 31 30 28 26
88 88 88 88 87 87 88 88 89 88 88 87 85 87 89 38 24 17 77 78 77 36 38 71 62 57 47 20 19 16 15 15 16 16 17 19 18 20 22 25 24 26 26 27 27
88 88 87 88 88 88 89 89 89 89 88 86 84 87 36 22 17 32 80 71 35 37 35 41 73 48 22 25 20 14 15 16 15 14 16 16 18 20 22 22 23 24 25 26 25
88 88 88 88 88 88 89 90 90 88 86 84 82 89 31 17 18 24 25 33 26 25 16 11 13 14 20 18 18 18 17 16 15 16 16 18 17 18 22 21 24 25 26 24 24
88 88 89 90 89 88 90 91 90 87 85 82 81 37 13 13 18 21 21 23 22 14 14 11 12 13 12 21 21 24 34 17 17 19 23 28 22 19 21 22 24 23 24 25 25
90 89 89 90 90 90 91 92 89 85 82 81 80 22 15 9 14 18 17 18 14 13 13 12 11 13 15 17 29 38 42 24 14 22 27 42 30 20 19 22 25 23 24 26 28
90 89 89 89 89 90 92 92 86 80 78 75 28 13 13 23 12 13 13 15 12 12 12 12 14 15 15 34 24 34 28 19 16 18 31 47 29 21 17 20 24 25 24 25 28
89 88 88 88 89 90 92 88 65 65 45 17 10 10 10 11 10 11 12 12 12 11 11 11 12 15 17 16 16 16 12 16 18 13 18 54 22 22 17 18 22 24 24 27 28
88 88 87 87 88 90 54 16 15 17 10 5 8 9 7 6 7 10 10 12 12 12 14 11 11 12 11 9 8 7 8 10 11 10 14 23 21 20 18 17 20 22 23 26 27
88 87 86 86 88 88 59 16 10 9 12 7 5 4 5 6 10 10 8 14 14 15 11 11 12 8 8 7 7 7 8 9 8 8 13 13 21 18 16 16 17 18 20 22 22
87 87 86 86 86 48 13 10 7 7 9 5 5 6 5 6 9 8 8 12 14 14 12 12 11 9 8 8 8 7 7 10 12 9 9 12 16 20 16 15 15 15 16 16 20
87 86 86 94 43 10 8 8 7 7 11 5 3 4 5 6 8 6 6 8 10 13 12 11 8 9 9 9 8 8 7 6 7 10 16 11 20 19 17 18 17 15 15 16 17
86 84 86 91 28 11 8 6 7 8 14 3 3 2 4 6 7 8 7 8 11 10 9 12 10 9 10 10 8 9 7 8 6 8 10 13 19 19 14 17 18 15 15 14 16
85 84 89 47 31 12 6 6 8 12 10 4 4 5 5 4 5 6 8 7 8 9 9 9 7 8 9 8 7 7 7 8 8 8 10 8 9 14 12 14 14 13 12 13 14
86 83 78 30 15 10 8 8 13 12 4 4 4 4 4 4 4 6 8 10 12 13 12 10 9 8 7 9 8 8 7 11 12 10 10 6 7 11 8 7 9 11 11 12 14
84 85 55 21 12 10 9 12 19 8 6 4 4 4 5 4 4 4 6 8 10 10 10 12 12 9 7 9 10 9 7 10 20 12 13 8 10 9 6 5 6 8 10 10 11
87 16 18 14 10 11 12 14 12 8 5 6 6 5 5 4 4 4 4 5 7 8 12 11 11 6 7 7 8 9 11 6 7 6 9 11 8 7 7 6 6 6 8 9 9
40 22 12 10 9 11 13 19 9 6 5 6 9 7 8 5 4 5 5 4 4 5 6 9 13 8 6 6 6 8 7 10 9 18 18 9 10 10 12 10 8 7 8 8 6
34 20 12 8 8 13 15 10 7 5 5 6 9 10 9 7 5 5 6 4 3 4 4 6 8 9 7 7 8 8 9 9 8 8 12 12 10 6 13 11 8 7 8 6 7
23 17 13 10 13 10 10 9 18 6 5 6 6 7 9 8 8 7 7 6 4 3 4 4 6 10 8 6 5 7 8 8 11 14 9 8 11 8 9 7 7 7 8 7 10
29 16 10 10 14 11 10 8 7 6 7 7 7 7 8 10 12 8 7 5 4 5 6 4 6 10 9 6 5 7 7 7 6 6 12 9 9 6 8 8 8 8 9 14 14
33 17 14 14 13 14 16 14 12 9 11 10 10 8 8 8 7 11 8 6 5 5 49 16 5 7 10 9 6 8 8 7 6 9 9 7 7 6 8 9 9 9 12 14 17
23 21 17 21 16 14 14 17 17 15 11 11 14 12 11 11 10 10 9 7 6 12 9 6 7 7 6 6 5 5 7 7 8 8 10 7 7 6 11 10 9 8 13 18 17
25 24 20 21 14 14 18 14 14 12 14 16 15 14 13 14 11 10 8 10 10 8 8 6 10 9 9 6 6 5 5 6 7 7 7 7 7 4 7 10 10 10 15 20 20
24 24 24 30 17 15 14 15 16 16 17 16 18 20 20 17 13 11 14 11 8 10 9 8 9 10 12 7 7 8 6 5 6 6 6 7 6 6 6 8 10 11 15 21 19
Wind_Speed
16 16 17 17 15 15 16 16 15 15 15 14 14 13 13 13 15 6 10 1 5 16 1 4 13 22 19 16 11 3 3 10 11 17 13 12 13 12 13 11 4 19 19 20 16
16 17 17 17 17 15 16 16 16 16 16 15 14 13 12 11 12 14 5 9 18 16 15 18 11 8 6 9 14 12 9 10 17 15 13 15 13 12 11 14 17 19 20 18 16
18 17 18 19 19 17 16 16 16 16 16 15 15 12 10 11 9 7 8 11 14 17 24 9 4 6 5 22 10 11 11 13 17 13 16 12 13 7 17 14 14 18 17 17 15
19 19 18 18 19 19 17 17 16 17 16 16 15 12 9 8 2 7 11 12 11 17 23 26 18 11 13 9 13 13 12 13 13 10 12 10 12 6 13 17 18 18 17 16 15
18 19 19 18 18 20 19 17 17 17 17 17 15 10 8 9 2 10 11 9 12 13 21 25 16 18 2 4 4 14 14 12 6 15 11 9 12 8 14 19 18 18 17 15 12
16 16 17 18 18 18 19 19 18 18 17 17 15 14 7 16 7 13 12 13 13 17 15 10 14 14 7 7 4 20 9 10 12 10 13 12 12 11 12 18 18 17 15 15 14
19 18 17 17 19 19 19 20 20 18 18 17 13 8 13 11 11 11 11 12 16 9 13 14 13 18 20 19 15 8 8 2 11 13 7 14 13 13 15 18 17 18 16 14 12
20 20 19 19 19 20 20 20 21 19 17 16 10 8 9 2 5 11 11 13 12 9 13 12 11 14 12 5 9 6 6 5 12 19 10 10 12 14 16 17 15 15 15 14 17
21 22 22 21 20 20 20 21 21 15 12 11 8 9 16 3 11 12 13 14 10 10 12 11 10 12 13 8 14 11 12 9 11 20 15 16 17 17 16 16 14 13 13 13 14
21 23 23 23 21 20 23 14 5 12 8 10 11 10 14 15 13 15 14 13 13 15 14 17 14 16 11 11 5 3 7 4 13 7 10 16 14 17 17 17 15 14 14 12 12
22 23 24 24 24 17 15 5 7 7 13 13 13 14 23 20 10 13 15 13 13 15 16 18 14 6 19 0 5 6 8 11 12 6 8 16 16 17 15 16 16 15 15 15 15
24 24 25 26 25 19 7 8 8 8 11 19 23 21 18 15 11 13 16 15 14 15 17 17 14 13 8 6 9 5 5 3 6 6 7 4 17 17 15 14 16 16 16 17 17
24 25 26 29 28 10 11 7 7 10 9 18 21 22 20 13 15 16 20 15 19 19 19 19 20 6 2 6 13 11 6 10 12 7 6 5 1 16 17 13 14 16 17 17 17
24 25 25 31 5 13 6 5 8 6 8 18 20 24 22 20 23 21 24 18 19 23 22 23 20 18 13 10 15 14 8 4 2 11 9 14 8 8 18 16 15 14 16 17 18
25 24 25 8 12 7 11 9 9 8 8 4 16 9 16 26 22 21 21 24 19 20 22 20 23 21 14 12 18 15 7 11 12 13 13 15 4 7 17 17 19 16 18 18 20
26 23 22 3 7 13 10 11 9 7 11 5 9 9 12 18 23 24 21 23 21 18 23 22 21 22 16 14 17 6 13 12 8 14 13 12 6 10 16 17 19 18 16 16 21
28 27 12 9 7 12 10 8 7 10 12 15 10 12 13 16 17 20 23 21 18 18 21 20 22 22 18 11 17 7 14 11 11 11 11 14 3 10 13 13 16 20 15 16 15
32 28 7 8 9 10 8 8 11 10 20 11 1 10 11 13 17 21 22 24 20 22 19 18 18 23 16 16 17 13 16 14 13 10 7 7 4 10 14 9 6 14 17 17 16
32 7 7 8 6 5 8 11 13 14 14 16 21 9 12 15 15 17 22 23 23 21 21 20 23 18 22 21 20 20 18 21 20 19 10 17 11 12 17 13 11 9 11 10 9
9 9 8 7 4 6 8 14 20 20 23 14 13 15 20 20 17 17 17 20 24 26 21 19 22 25 17 22 23 23 18 17 11 14 15 13 14 9 17 16 15 13 15 10 9
7 6 7 5 4 6 10 14 16 18 18 17 15 17 21 24 23 21 13 18 17 22 23 23 20 20 22 19 22 19 18 20 18 14 11 12 9 8 18 16 16 15 15 15 12
8 5 8 4 7 7 11 17 16 17 18 17 19 16 17 22 23 21 19 19 15 17 22 23 22 19 22 23 21 22 23 22 14 16 15 14 2 13 15 16 16 16 14 17 12
8 8 7 4 8 7 11 13 10 12 13 15 20 20 19 18 22 22 22 22 22 23 15 16 17 18 22 19 24 23 19 17 20 17 18 13 8 14 18 17 16 14 15 16 14
7 5 1 3 8 10 10 11 13 12 13 17 16 19 20 23 22 22 24 26 19 21 6 12 16 22 16 20 20 20 22 23 24 18 16 17 18 15 15 13 14 14 18 19 14
4 7 12 7 13 18 16 15 16 17 16 16 16 19 19 20 21 24 23 20 22 22 18 14 18 21 23 25 26 28 23 27 25 21 20 17 18 19 14 10 11 14 18 20 15
7 8 9 13 16 16 14 14 17 16 15 13 17 16 18 20 20 18 24 23 20 19 20 19 18 21 24 27 24 26 27 21 24 23 23 24 25 22 9 17 14 14 17 19 15
9 10 7 10 14 14 12 13 16 17 17 18 20 19 20 18 21 20 20 22 20 21 25 23 22 20 21 25 26 26 27 25 21 25 24 21 22 20 18 3 17 15 11 18 18
Wind_Direction
358 351 347 345 346 341 336 333 331 329 323 320 318 316 313 311 302 229 245 22 175 159 141 127 9 4 300 227 199 200 219 96 112 96 117 121 91 97 123 147 140 113 136 128 150
356 351 345 342 341 340 332 329 325 324 319 316 313 310 309 313 279 257 129 113 140 140 101 47 50 79 318 267 251 211 57 33 89 107 107 101 111 138 113 103 87 98 110 138 159
349 346 342 338 335 334 330 326 322 319 315 313 309 308 298 300 273 105 157 147 163 163 110 60 288 187 240 266 83 73 60 50 77 109 92 115 134 124 128 123 125 128 136 149 155
351 349 348 341 335 331 328 323 319 315 311 307 305 308 292 252 331 91 147 167 185 194 157 178 220 195 248 17 340 74 82 95 97 113 126 99 113 74 114 125 129 137 146 153 173
354 347 343 340 333 327 322 319 316 312 308 304 306 312 280 245 104 128 141 169 190 217 248 186 178 201 167 218 321 86 85 83 122 88 117 127 88 97 101 114 128 140 153 160 177
344 342 340 333 328 324 318 315 312 308 304 302 308 311 240 278 101 145 165 167 217 229 285 5 347 330 139 173 65 28 16 133 108 125 114 109 134 123 130 124 134 148 163 172 151
339 337 333 327 322 319 312 309 306 302 298 296 305 292 272 286 132 175 169 203 234 279 315 347 333 321 18 61 52 85 332 27 142 129 28 353 141 122 145 135 148 160 173 148 161
336 334 330 325 320 316 311 304 299 293 289 283 289 273 273 84 164 192 194 230 250 266 281 294 314 302 71 110 91 316 338 217 129 121 90 5 119 135 151 150 166 165 155 150 143
335 332 329 325 320 317 311 301 291 285 259 271 258 233 265 82 222 210 214 249 241 253 259 271 280 281 122 136 228 160 241 154 152 151 143 171 141 148 160 162 173 164 163 162 162
335 331 328 325 322 322 313 280 268 302 216 238 257 261 253 231 216 219 216 247 276 290 279 256 248 245 149 219 345 141 181 161 154 161 123 3 127 153 171 162 172 177 180 178 179
335 330 327 325 320 329 328 244 214 198 238 238 196 216 261 227 271 195 203 226 255 270 277 284 258 270 263 112 346 297 314 119 135 133 293 158 158 157 180 167 171 185 187 182 189
333 330 328 324 319 319 272 268 38 334 292 239 250 265 251 276 194 229 228 221 243 256 263 256 265 276 29 314 285 308 278 112 117 117 206 85 149 161 174 178 176 182 188 188 194
332 330 329 324 317 284 254 11 321 311 272 269 239 232 235 233 239 245 218 218 246 257 251 266 282 260 10 283 286 253 257 224 125 138 282 185 152 160 167 182 179 187 183 194 188
331 329 330 328 299 335 271 12 319 323 277 260 211 225 215 234 230 238 261 212 240 251 261 276 267 272 267 266 280 293 2 314 275 178 232 216 214 203 166 178 185 199 183 186 186
329 328 324 317 309 293 355 313 325 269 277 85 173 150 218 218 233 228 232 254 230 257 244 251 269 270 260 269 273 306 345 279 249 269 236 219 186 224 188 182 181 204 191 189 182
325 325 331 151 224 262 318 305 273 235 246 164 140 199 227 228 224 241 216 225 256 240 257 269 265 266 279 231 251 273 298 280 274 255 271 236 158 179 181 188 182 184 203 199 180
321 314 305 301 276 346 308 274 230 245 228 264 210 199 210 237 225 231 246 219 217 233 249 244 251 260 258 270 262 195 252 251 227 233 249 112 165 145 139 175 184 179 181 187 187
319 311 216 244 295 282 280 241 244 255 240 273 148 288 277 222 228 219 229 246 208 230 252 236 237 235 232 223 253 230 239 258 254 254 360 111 238 157 142 136 71 174 170 181 189
311 279 231 197 230 293 253 231 234 242 295 333 329 277 264 261 256 234 219 237 239 218 238 254 261 243 215 224 218 249 254 258 280 292 248 215 128 115 135 158 151 185 141 185 165
316 287 243 79 291 237 244 255 278 286 312 318 271 294 302 292 266 219 249 223 241 247 237 236 259 271 240 208 226 232 254 257 248 275 288 288 175 193 168 166 166 183 153 169 135
262 243 94 161 239 235 247 258 263 270 279 293 286 287 283 289 298 294 250 241 245 239 247 256 241 255 264 255 212 219 233 255 276 268 251 265 267 205 160 167 168 187 171 151 153
298 285 109 258 249 233 246 250 260 279 293 307 293 285 272 290 297 297 293 299 290 280 235 240 254 251 247 261 257 222 221 230 246 251 273 277 131 128 163 180 175 192 172 154 143
296 294 131 237 266 282 303 300 250 278 311 293 287 287 297 283 279 287 290 292 298 297 301 270 245 253 252 245 255 218 232 250 237 245 263 265 248 183 173 181 177 195 172 131 132
280 304 159 222 261 268 296 300 307 320 294 283 281 282 282 278 280 272 267 277 285 283 32 313 270 268 243 246 259 226 208 227 245 246 237 249 258 278 149 166 177 194 153 140 145
281 5 347 305 325 339 327 313 302 292 290 289 279 282 271 270 271 273 276 271 273 283 299 287 274 274 273 271 257 264 224 215 232 255 261 268 257 251 165 186 209 198 153 142 161
359 345 337 295 291 293 284 270 273 283 291 288 288 289 276 275 272 275 278 281 281 284 286 271 260 266 271 274 266 261 261 226 217 227 252 266 271 275 248 174 189 190 157 152 166
6 338 302 300 291 289 292 320 315 321 304 303 309 308 295 293 302 305 306 300 289 271 270 285 278 240 244 254 259 254 253 261 256 220 216 227 244 264 277 238 175 176 176 162 166